Regional Weather Roundup
Issued by NWS Charleston, SC

Current Version | Previous Version | Graphics & Text | Print | Product List | Glossary On
Versions: 1 2 3 4 5 6 7 8 9 10 11 12 13 14 15 16 17 18 19 20 21 22 23 24 25 26 27 28 29 30 31 32 33 34 35 36 37 38 39 40 41 42 43 44 45 46 47 48 49 50
000 ASUS42 KCHS 241912 RWRCHS REGIONAL WEATHER ROUNDUP NATIONAL WEATHER SERVICE CHARLESTON SC 300 PM EDT MON APR 24 2017 NOTE: "FAIR" INDICATES FEW OR NO CLOUDS BELOW 12,000 FEET WITH NO SIGNIFICANT WEATHER AND/OR OBSTRUCTIONS TO VISIBILITY. NOT ALL STATIONS ARE QUALITY CONTROLLED. USE DATA WITH CAUTION... ESPECIALLY DEWPOINT OBSERVATIONS. SCZ027-030-031-034>040-042>050-242000- ...SOUTHEAST SOUTH CAROLINA... CITY SKY/WX TMP DP RH WIND PRES REMARKS N CHARLESTON CLOUDY 71 64 78 NW5 29.62F WATERFRONT PRK N/A 72 68 87 S10 29.62F JOHNS ISLAND MOCLDY 77 68 73 SE12 29.62F PINOPOLIS NOT AVBL MONCKS CORNER LGT RAIN 64 63 94 CALM 29.64F SUMMERVILLE MOCLDY 70 64 83 CALM 29.64F BEAUFORT MCAS PTSUNNY 77 58 51 W17G25 29.64F BEAUFORT ARPT FAIR 77 54 44 W16 29.64S HILTON HEAD IS NOT AVBL WALTERBORO MOCLDY 75 55 50 SW10 29.63F ALLENDALE MOCLDY 72 61 68 VRB6 29.64S ...SOUTHERN MIDLANDS AND PEE DEE... CITY SKY/WX TMP DP RH WIND PRES REMARKS GEORGETOWN FAIR 70 68 94 CALM 29.65F KINGSTREE CLOUDY 61 59 94 NW6 29.69R ORANGEBURG CLOUDY 68 64 87 NE8 29.65F BARNWELL CLOUDY 68 66 94 NW6 29.66S AIKEN CLOUDY 57 54 88 N13G18 29.73R MANNING RAIN 63 61 94 MISG 29.66R COLUMBIA CLOUDY 62 59 90 NW7 29.68F SUMTER LGT RAIN 61 59 93 NE18 29.65F FOG FLORENCE LGT RAIN 61 61 100 NE8 29.70S MYRTLE BEACH PTSUNNY 68 66 94 N12 29.65F N MYRTLE BEACH LGT RAIN 66 65 96 CALM 29.66F $$ GAZ063-065-086>088-099>101-113>116-118-119-134>141-150-242000- ...SOUTHEAST GEORGIA... CITY SKY/WX TMP DP RH WIND PRES REMARKS SAVANNAH ARPT PTSUNNY 77 48 35 W17G25 29.66F HUNTER AAF MOSUNNY 77 56 48 W15G23 29.63F FORT STEWART CLOUDY 74 52 46 W12G21 29.65S STATESBORO CLOUDY 73 53 47 W13G18 29.66F SYLVANIA CLOUDY N/A N/A N/A NW10 29.67S CLAXTON MOCLDY 71 55 57 S5G16 29.68F ...CSRA...CENTRAL AND FAR SOUTHEAST GEORGIA... CITY SKY/WX TMP DP RH WIND PRES REMARKS THOMSON CLOUDY 60 55 85 E8 29.76S AUGUSTA-BUSH CLOUDY 66 57 72 N12 29.68S AUGUSTA-DANIEL CLOUDY 63 53 70 N10 29.70S SWAINSBORO MOCLDY 68 59 73 N10G18 29.69F VIDALIA PTSUNNY 70 52 52 W7 29.69S EASTMAN MOCLDY 67 49 51 SW6 29.73F HAZLEHURST CLOUDY 70 55 59 S10 29.69F ALMA CLOUDY 67 52 58 W10 29.70F WAYCROSS CLOUDY 71 54 55 W13G21 29.71F JESUP MOCLDY 72 46 40 W8G17 29.68F BAXLEY CLOUDY 68 55 64 W12G18 29.70F BRUNSWICK MOSUNNY 75 55 50 W12G22 29.67F SAINT SIMONS MOSUNNY 76 53 44 W14G21 29.66F $$ SCZ027-028-034-036>038-045-046-048>050-GAZ119-141-242000- ...LAKE AND SUPPLEMENTAL COASTAL OBSERVATIONS... STATION/POSITION TIME TEMP WIND PRES WAVE SWELL AIR SEA DIR/SP/G HT/PER HT/PER/DIR (UTC) (F) (DEG/KT/KT) (MB) (FT/S) (FT/S/D) WINYAH BAY 1745 67 120/ 3 1005.0 LAKE MURRAY 1820 59 340/ 3/ 8 1005.4 ACE BASIN NERRS 1745 76 240/ 5 1004.0 FORT PULASKI 1848 73 75 280/ 15/ 19 1004.3F SAPELO ISLAND 1800 74 250/ 13 1005.0 $$ ANZ835-935-AMZ111-154-330-350-352-354-370-450-454-472-242000- ...C-MAN AND BUOY OBSERVATIONS... STATION/POSITION TIME TEMP WIND PRES WAVE SWELL AIR SEA DIR/SP/G HT/PER HT/PER/DIR (UTC) (F) (DEG/KT/KT) (MB) (FT/S) (FT/S/D) BUOY 41004 1850 72 74 180/ 16/ 21 1003.0F 6/ 8 5/140/ 8 BUOY 41008 1850 72 72 250/ 14/ 17 1004.1F 4/ 8 3/100/ 8 FOLLY BEACH CMAN 1800 71 160/ 11/ 12 1004.6F CAPERS NEARSHORE 1808 71 72 190/ 14/ 19 1004.2F FRIPP NEARSHORE 1808 72 73 240/ 12/ 16 1003.8F STATION/POSITION TIME TEMP WIND PRES WAVE SWELL AIR SEA DIR/SP/G HT/PER HT/PER/DIR (UTC) (F) (DEG/KT/KT) (MB) (FT/S) (FT/S/D) 5E ST. MARYS GA 1900 73 N/A 3/ 8 2/ 90/11 FRYING PAN BUOY 1850 74 75 160/ 21/ 27 1004.0F 9/ 8 2/110/13 BUOY 41025 1850 75 79 130/ 27/ 33 1008.4F 8/ 7 3/ 60/11 CAPE LOOKOUT NC 1800 69 130/ 18/ 20 1007.5F BUOY 41002 1850 67 75 60/ 21/ 25 1007.0F 8/ 7 2/ 70/11 BUOY 41010 1850 77 78 260/ 14/ 17 1005.5F 6/ 8 5/120/ 8 ST AUGUSTINE FL 1900 76 75 270/ 15/ 19 1005.6F $$

USA.gov is the U.S. government's official web portal to all federal, state and local government web resources and services.